Home > Weather > Midway > Past weeks

Flag for US Minor Outlying Islands Weather for the Past 2 Weeks in Midway, US Minor Outlying Islands

Now
66 °F

Passing clouds.


Feels Like: 66 °F
Forecast: 63 / 68 °F
Wind: 15 mph from Southwest

Location: Midway Island Naval Air Facility

Current Time: Feb 7, 2016 at 7:26:36 PM

Latest Report: Feb 7, 2016 at 7:01 PM


Visibility: 10 mi

Pressure: 30.16 "Hg

Humidity: 65%

Dew point: 54 °F

Location of MidwayLocation

Historic Weather in Midway — Graph

°F

Midway Temperature Yesterday

Maximum temperature yesterday: 67 °F (at 4:01 PM)
Minimum temperature yesterday: 56 °F (at 10:01 PM)
Average temperature yesterday: 60 °F

High & Low Weather Summary for the Past Weeks

 TemperatureHumidityPressure
High78 °F (Feb 4, 2:01 PM)100% (Feb 4, 4:20 AM)30.37 "Hg (Feb 4, 4:20 AM)
Low50 °F (Feb 7, 5:01 AM)42% (Feb 5, 12:01 PM)29.78 "Hg (Feb 4, 4:01 PM)
Average66 °F74%30.05 "Hg
* Reported Jan 23 6:01 PM — Feb 7 6:01 PM, Midway, Weather by CustomWeather, © 2016

Note: Actual official high and low records may vary slightly from our data, if they occured in-between our weather recording intervals... More about our weather records

Advertising

Midway Weather History for the Previous 24 Hours

 ConditionsComfort  
Time TempWeatherWind HumidityBarometerVisibility
6:01 PM
Sun, Feb 7
68 °FPartly sunny.16 mph61%30.16 "Hg10 mi
5:01 PM71 °FScattered clouds.16 mph51%30.17 "Hg10 mi
4:01 PM71 °FScattered clouds.13 mph51%30.19 "Hg10 mi
3:01 PM71 °FSunny.10 mph51%30.20 "Hg10 mi
2:01 PM71 °FSunny.9 mph47%30.23 "Hg10 mi
1:01 PM71 °FSunny.8 mph47%30.27 "Hg10 mi
12:01 PM70 °FSunny.8 mph49%30.28 "Hg10 mi
11:01 AM69 °FSunny.7 mph49%30.30 "Hg10 mi
10:01 AM68 °FSunny.6 mph53%30.32 "Hg10 mi
9:01 AM65 °FSunny.6 mph54%30.31 "Hg10 mi
8:01 AM61 °FSunny.6 mph60%30.31 "Hg10 mi
7:01 AM59 °FClear.7 mph64%30.29 "Hg10 mi
6:01 AM58 °FClear.8 mph67%30.28 "Hg10 mi
5:01 AM50 °FClear.No wind83%30.31 "Hg10 mi
4:01 AM51 °FClear.No wind83%30.34 "Hg10 mi
3:01 AM53 °FClear.3 mph77%30.37 "Hg10 mi
2:01 AM52 °FClear.No wind80%30.37 "Hg10 mi
1:01 AM54 °FClear.No wind74%30.37 "Hg10 mi
12:01 AM55 °FClear.3 mph74%30.37 "Hg10 mi
11:01 PM
Sat, Feb 6
56 °FClear.6 mph70%30.37 "Hg10 mi
10:01 PM56 °FClear.7 mph72%30.37 "Hg10 mi
9:01 PM57 °FClear.8 mph69%30.36 "Hg10 mi
8:01 PM59 °FClear.13 mph62%30.35 "Hg10 mi
7:01 PM59 °FClear.8 mph60%30.35 "Hg10 mi
Weather by CustomWeather, © 2016

See weather overviewHow to use our weather pages